FENGYUN 1C DEB, 30196

Orbit data source: Space-Track

FENGYUN 1C DEB, 30196 is space debris in SSO originally from a launch on Mon, 10 May 1999 UTC launched from the Taiyaun Space Center, China (TSC). Fengyun 1C debris stems from the Chinese weather satellite Fengyun-1C, which was intentionally destroyed by a Chinese anti-satellite missile in 2007. This event dramatically increased the amount of space debris, with thousands of trackable fragments posing hazards to satellites and human spaceflight. The Fengyun 1C debris cloud has become a focal point in discussions about space sustainability and the need for international regulations to prevent the creation of new debris.

Loading next visibility...
Identifier
30196, 1999-025VD
Orbit
SSO
Country
Flag of CNCN / PRC
Related business
Manufacturer
Unknown
Mission
Spacecraft
Bus & Motor
Unknown
Mass
Unknown
Launch date (UTC)
1999-05-10 (27 years ago)
Launch vehicle
Unknown
Launch site
Taiyaun Space Center, China (TSC)
Object type
Payload
Rocket body
Debris
Shape & HBR
Unknown shape, 0.1 m
Radar Cross Section
Medium (>0.1 m² and <1 m²)

Expand to show TLE details & history
Last TLE update: 20 hours ago

TLE from 20 hours ago
0 FENGYUN 1C DEB
1 30196U 99025VD  26253.75578073  .00000026  00000-0  28260-4 0  9994
2 30196  98.6358 347.2699 0085650 350.5725 138.1261 14.25923740 22385
Epoch: 2026-09-10T18:08Z
TLE epoch observation values (Epoch: 2026-09-10T18:08:19.455Z)
Latitude
49.96507°
Longitude
-84.2407°
Altitude
859.367 km
Speed
7.404 km/s
True Right ascension
11h 50m 31s
True Declination
49° 47' 53"
Sunlit
Object was in daylight at epoch
Visualization orbit readout
Latitude
Unknown
Longitude
Unknown
Altitude
Unknown
Speed
Unknown
Apparent Right ascension
Unknown
Apparent Declination
Unknown
Sunlit
N/A
Visualization observer readout
Local Sidereal Time
06:15:49
Azimuth
Unknown
Elevation
Unknown
Doppler factor
Unknown
Orbital elements
Apogee altitude
864.038 km
Perigee altitude
741.033 km
Semi-major axis
7,180.672 km
Eccentricity
0.00857
Inclination
98.6358°
RAAN
347.2699°
Arg. of periapsis
350.5725°
True anomaly
138.77603°
Mean anomaly
138.1261°
Eccentric anomaly
138.45158°
Mean motion
3.56694 °/min
Orbital period
100.93 mins
BSTAR
0.00002826
Loading maneuver chart data...
Computing Atmospheric mass density...
Loading historical data...
Loading historical data...
Loading historical data...
Loading historical data...
Loading historical data...
Loading historical data...
Loading historical data...

Documentation

Showing up to 5 results
|